GW4369 Weather Reports


Display with metric or nautical units.
time (UTC)temp
F
wind
direction
speed
MPH
gust
MPH
rain 1hr
in
rain 24hr
in
rain mn
in
humidity
%
barometer
mb
20260507014513 0 115 1.0 2.0 0.00 0.00 0.00
20260507014009 0 115 0.0 2.0 0.00 0.00 0.00
20260507013506 0 115 1.0 1.0 0.00 0.00 0.00
20260507013004 0 115 0.0 0.0 0.00 0.00 0.00
20260507012501 0 115 1.0 1.0 0.00 0.00 0.00
20260507011957 0 115 1.0 2.0 0.00 0.00 0.00
20260507011454 0 115 1.0 2.0 0.00 0.00 0.00
20260507010949 0 115 0.0 1.0 0.00 0.00 0.00
20260507010444 0 115 1.0 2.0 0.00 0.00 0.00
20260507005941 0 115 0.0 1.0 0.00 0.00 0.00
20260507005438 0 115 1.0 2.0 0.00 0.00 0.00
20260507004935 0 115 1.0 3.0 0.00 0.00 0.00
20260507004432 0 115 1.0 3.0 0.00 0.00 0.00
20260507003930 0 115 1.0 2.0 0.00 0.00 0.00
20260507003425 0 115 2.0 3.0 0.00 0.00 0.00
20260507002920 0 115 2.0 3.0 0.00 0.00 0.00
20260507002416 0 115 0.0 1.0 0.00 0.00 0.00
20260507001913 0 115 0.0 1.0 0.00 0.00 0.00
20260507001410 0 115 2.0 2.0 0.00 0.00 0.00
20260507000907 0 115 2.0 2.0 0.00 0.00 0.00
20260507000405 0 115 1.0 1.0 0.00 0.00 0.00
20260506235859 0 115 2.0 2.0 0.00 0.00 0.00
20260506235356 0 115 0.0 2.0 0.00 0.00 0.00
20260506234851 0 115 2.0 3.0 0.00 0.00 0.00
20260506234349 0 115 1.0 3.0 0.00 0.00 0.00
20260506233847 0 115 3.0 3.0 0.00 0.00 0.00
20260506233343 0 115 1.0 2.0 0.00 0.00 0.00
20260506232840 0 115 2.0 3.0 0.00 0.00 0.00
20260506232336 0 115 2.0 2.0 0.00 0.00 0.00
20260506231833 0 115 1.0 2.0 0.00 0.00 0.00
20260506231331 0 115 1.0 2.0 0.00 0.00 0.00
20260506230828 0 115 2.0 2.0 0.00 0.00 0.00
20260506230324 0 115 1.0 3.0 0.00 0.00 0.00
20260506225820 0 115 2.0 3.0 0.00 0.00 0.00
20260506225318 0 115 2.0 3.0 0.00 0.00 0.00
20260506224814 0 115 2.0 3.0 0.00 0.00 0.00
20260506224311 0 115 1.0 2.0 0.00 0.00 0.00
20260506223808 0 115 1.0 3.0 0.00 0.00 0.00
20260506223303 0 115 2.0 3.0 0.00 0.00 0.00
20260506222801 0 115 3.0 3.0 0.00 0.00 0.00
20260506222256 0 115 2.0 3.0 0.00 0.00 0.00
20260506221754 0 115 1.0 3.0 0.00 0.00 0.00
20260506221252 0 115 1.0 3.0 0.00 0.00 0.00
20260506220749 0 115 1.0 2.0 0.00 0.00 0.00
20260506220243 0 115 1.0 2.0 0.00 0.00 0.00
20260506215741 0 115 0.0 2.0 0.00 0.00 0.00
20260506215236 0 115 3.0 4.0 0.00 0.00 0.00
20260506214732 0 115 0.0 4.0 0.00 0.00 0.00
20260506214230 0 115 2.0 3.0 0.00 0.00 0.00
20260506213728 0 115 2.0 4.0 0.00 0.00 0.00
20260506213225 0 115 3.0 4.0 0.00 0.00 0.00
20260506212722 0 115 3.0 6.0 0.00 0.00 0.00
20260506212218 0 115 3.0 4.0 0.00 0.00 0.00
20260506211713 0 115 2.0 3.0 0.00 0.00 0.00
20260506211210 0 115 2.0 6.0 0.00 0.00 0.00
20260506210707 0 115 1.0 2.0 0.00 0.00 0.00
20260506210204 0 115 0.0 2.0 0.00 0.00 0.00
20260506205701 0 115 1.0 2.0 0.00 0.00 0.00
20260506205155 0 115 1.0 2.0 0.00 0.00 0.00
20260506204653 0 115 0.0 1.0 0.00 0.00 0.00
20260506204150 0 115 0.0 2.0 0.00 0.00 0.00
20260506203648 0 115 0.0 2.0 0.00 0.00 0.00
20260506203145 0 115 2.0 3.0 0.00 0.00 0.00
20260506202643 0 115 1.0 3.0 0.00 0.00 0.00
20260506202139 0 115 1.0 1.0 0.00 0.00 0.00
20260506201636 0 115 0.0 1.0 0.00 0.00 0.00
20260506201132 0 115 0.0 1.0 0.00 0.00 0.00
20260506200629 0 115 1.0 4.0 0.00 0.00 0.00
20260506200126 0 115 1.0 3.0 0.00 0.00 0.00
20260506195622 0 115 1.0 3.0 0.00 0.00 0.00
20260506195119 0 115 0.0 1.0 0.00 0.00 0.00
20260506194616 0 115 0.0 2.0 0.00 0.00 0.00
20260506194113 0 115 1.0 2.0 0.00 0.00 0.00
20260506193611 0 115 0.0 2.0 0.00 0.00 0.00
20260506193108 0 115 2.0 3.0 0.00 0.00 0.00
20260506192604 0 115 1.0 2.0 0.00 0.00 0.00
20260506192100 0 115 2.0 2.0 0.00 0.00 0.00
20260506191557 0 115 0.0 1.0 0.00 0.00 0.00
20260506191053 0 115 1.0 1.0 0.00 0.00 0.00
20260506190550 0 115 0.0 2.0 0.00 0.00 0.00
20260506190047 0 115 0.0 1.0 0.00 0.00 0.00
20260506185544 0 115 1.0 2.0 0.00 0.00 0.00
20260506185041 0 115 2.0 3.0 0.00 0.00 0.00
20260506184538 0 115 1.0 2.0 0.00 0.00 0.00
20260506184036 0 115 0.0 0.0 0.00 0.00 0.00
20260506183531 0 115 0.0 1.0 0.00 0.00 0.00
20260506183028 0 115 1.0 3.0 0.00 0.00 0.00
20260506182526 0 115 0.0 1.0 0.00 0.00 0.00
20260506182023 0 115 0.0 2.0 0.00 0.00 0.00
20260506181520 0 115 1.0 1.0 0.00 0.00 0.00
20260506181017 0 115 1.0 2.0 0.00 0.00 0.00
20260506180514 0 115 3.0 3.0 0.00 0.00 0.00
20260506180010 0 115 0.0 3.0 0.00 0.00 0.00
20260506175507 0 115 1.0 4.0 0.00 0.00 0.00
20260506175003 0 115 0.0 0.0 0.00 0.00 0.00
20260506174502 0 115 1.0 2.0 0.00 0.00 0.00
20260506173957 0 115 0.0 1.0 0.00 0.00 0.00
20260506173455 0 115 0.0 1.0 0.00 0.00 0.00
20260506172952 0 115 0.0 1.0 0.00 0.00 0.00
20260506172450 0 115 0.0 2.0 0.00 0.00 0.00
20260506171945 0 115 1.0 2.0 0.00 0.00 0.00
20260506171443 0 115 0.0 2.0 0.00 0.00 0.00
20260506170941 0 115 3.0 3.0 0.00 0.00 0.00
20260506170437 0 115 1.0 2.0 0.00 0.00 0.00
20260506165936 0 115 1.0 2.0 0.00 0.00 0.00
20260506165434 0 115 0.0 0.0 0.00 0.00 0.00
20260506164924 0 115 1.0 3.0 0.00 0.00 0.00
20260506164421 0 115 1.0 4.0 0.00 0.00 0.00
20260506163919 0 115 0.0 2.0 0.00 0.00 0.00
20260506163413 0 115 1.0 2.0 0.00 0.00 0.00
20260506162908 0 115 0.0 2.0 0.00 0.00 0.00
20260506162406 0 115 1.0 2.0 0.00 0.00 0.00
20260506161903 0 115 0.0 2.0 0.00 0.00 0.00
20260506161401 0 115 1.0 1.0 0.00 0.00 0.00
20260506160859 0 115 0.0 2.0 0.00 0.00 0.00
20260506160355 0 115 2.0 2.0 0.00 0.00 0.00
20260506155853 0 115 0.0 2.0 0.00 0.00 0.00
20260506155350 0 115 1.0 2.0 0.00 0.00 0.00
20260506153507 0 0.0 0.0 0.00 0.00 0.00
20260506153005 0 0.0 0.0 0.00 0.00 0.00
20260506152502 0 0.0 0.0 0.00 0.00 0.00
20260506152000 0 0.0 0.0 0.00 0.00 0.00
20260506151457 0 0.0 0.0 0.00 0.00 0.00
20260506150954 0 0.0 0.0 0.00 0.00 0.00
20260506145739 0 0.0 0.0 0.00 0.00 0.00
20260506145235 0 0.0 0.0 0.00 0.00 0.00
20260506144733 0 0.0 0.0 0.00 0.00 0.00
20260506144230 0 0.0 0.0 0.00 0.00 0.00
20260506143728 0 0.0 0.0 0.00 0.00 0.00
20260506143225 0 0.0 0.0 0.00 0.00 0.00
20260506142724 0 0.0 0.0 0.00 0.00 0.00
20260506142221 0 0.0 0.0 0.00 0.00 0.00
20260506141719 0 0.0 0.0 0.00 0.00 0.00
20260506141217 0 0.0 0.0 0.00 0.00 0.00
20260506140714 0 0.0 0.0 0.00 0.00 0.00
20260506140211 0 0.0 0.0 0.00 0.00 0.00
20260506135708 0 0.0 0.0 0.00 0.00 0.00
20260506135204 0 0.0 0.0 0.00 0.00 0.00
20260506134701 0 0.0 0.0 0.00 0.00 0.00
20260506134157 0 0.0 0.0 0.00 0.00 0.00
20260506133654 0 0.0 0.0 0.00 0.00 0.00
20260506133151 0 0.0 0.0 0.00 0.00 0.00
20260506132648 0 0.0 0.0 0.00 0.00 0.00
20260506132145 0 0.0 0.0 0.00 0.00 0.00
20260506131643 0 0.0 0.0 0.00 0.00 0.00
20260506131139 0 0.0 0.0 0.00 0.00 0.00
20260506130636 0 0.0 0.0 0.00 0.00 0.00
20260506130133 0 0.0 0.0 0.00 0.00 0.00
20260506125631 0 0.0 0.0 0.00 0.00 0.00
20260506125129 0 0.0 0.0 0.00 0.00 0.00
20260506124626 0 0.0 0.0 0.00 0.00 0.00
20260506124124 0 0.0 0.0 0.00 0.00 0.00
20260506123621 0 0.0 0.0 0.00 0.00 0.00
20260506123120 0 0.0 0.0 0.00 0.00 0.00
20260506122616 0 0.0 0.0 0.00 0.00 0.00
20260506122114 0 0.0 0.0 0.00 0.00 0.00
20260506121612 0 0.0 0.0 0.00 0.00 0.00
20260506121108 0 0.0 0.0 0.00 0.00 0.00
20260506120606 0 0.0 0.0 0.00 0.00 0.00
20260506115601 0 0.0 0.0 0.00 0.00 0.00
20260506115059 0 0.0 0.0 0.00 0.00 0.00
20260506114556 0 0.0 0.0 0.00 0.00 0.00
20260506114054 0 0.0 0.0 0.00 0.00 0.00
20260506113552 0 0.0 0.0 0.00 0.00 0.00
20260506113049 0 0.0 0.0 0.00 0.00 0.00
20260506112545 0 0.0 0.0 0.00 0.00 0.00
20260506112043 0 0.0 0.0 0.00 0.00 0.00
20260506111541 0 0.0 0.0 0.00 0.00 0.00
20260506111037 0 0.0 0.0 0.00 0.00 0.00
20260506110535 0 0.0 0.0 0.00 0.00 0.00
20260506110033 0 0.0 0.0 0.00 0.00 0.00
20260506105528 0 0.0 0.0 0.00 0.00 0.00
20260506105026 0 0.0 0.0 0.00 0.00 0.00
20260506104524 0 0.0 0.0 0.00 0.00 0.00
20260506104022 0 0.0 0.0 0.00 0.00 0.00
20260506103518 0 0.0 0.0 0.00 0.00 0.00
20260506103015 0 0.0 0.0 0.00 0.00 0.00
20260506102514 0 0.0 0.0 0.00 0.00 0.00
20260506102011 0 0.0 0.0 0.00 0.00 0.00
20260506101507 0 0.0 0.0 0.00 0.00 0.00
20260506101004 0 0.0 0.0 0.00 0.00 0.00
20260506100503 0 0.0 0.0 0.00 0.00 0.00
20260506100000 0 0.0 0.0 0.00 0.00 0.00
20260506095459 0 0.0 0.0 0.00 0.00 0.00
20260506094954 0 0.0 0.0 0.00 0.00 0.00
20260506094453 0 0.0 0.0 0.00 0.00 0.00
20260506093950 0 0.0 0.0 0.00 0.00 0.00
20260506093448 0 0.0 0.0 0.00 0.00 0.00
20260506092945 0 0.0 0.0 0.00 0.00 0.00
20260506092443 0 0.0 0.0 0.00 0.00 0.00
20260506091939 0 0.0 0.0 0.00 0.00 0.00
20260506091438 0 0.0 0.0 0.00 0.00 0.00
20260506090935 0 0.0 0.0 0.00 0.00 0.00
20260506090432 0 0.0 0.0 0.00 0.00 0.00
20260506085929 0 0.0 0.0 0.00 0.00 0.00
20260506085426 0 0.0 0.0 0.00 0.00 0.00
20260506084922 0 0.0 0.0 0.00 0.00 0.00
20260506084420 0 0.0 0.0 0.00 0.00 0.00
20260506083915 0 0.0 0.0 0.00 0.00 0.00
20260506083413 0 0.0 0.0 0.00 0.00 0.00
20260506082910 0 0.0 0.0 0.00 0.00 0.00
20260506082407 0 0.0 0.0 0.00 0.00 0.00
20260506081902 0 0.0 0.0 0.00 0.00 0.00
20260506081401 0 0.0 0.0 0.00 0.00 0.00
20260506080858 0 0.0 0.0 0.00 0.00 0.00
20260506080355 0 0.0 0.0 0.00 0.00 0.00
20260506073339 0 0.0 0.0 0.00 0.00 0.00
20260506072835 0 0.0 0.0 0.00 0.00 0.00
20260506072333 0 0.0 0.0 0.00 0.00 0.00
20260506071831 0 0.0 0.0 0.00 0.00 0.00
20260506071329 0 0.0 0.0 0.00 0.00 0.00
20260506070825 0 0.0 0.0 0.00 0.00 0.00
20260506070322 0 0.0 0.0 0.00 0.00 0.00
20260506062259 0 0.0 0.0 0.00 0.00 0.00
20260506061755 0 0.0 0.0 0.00 0.00 0.00
20260506061252 0 0.0 0.0 0.00 0.00 0.00
20260506060751 0 0.0 0.0 0.00 0.00 0.00
20260506060248 0 0.0 0.0 0.00 0.00 0.00
20260506051220 0 0.0 0.0 0.00 0.00 0.00
20260506050718 0 0.0 0.0 0.00 0.00 0.00
20260506050215 0 0.0 0.0 0.00 0.00 0.00
20260506044706 0 0.0 0.0 0.00 0.00 0.00
20260506044203 0 0.0 0.0 0.00 0.00 0.00
20260506043700 0 0.0 0.0 0.00 0.00 0.00
20260506043158 0 0.0 0.0 0.00 0.00 0.00
20260506042657 0 0.0 0.0 0.00 0.00 0.00
20260506042154 0 0.0 0.0 0.00 0.00 0.00
20260506041653 0 115 0.0 0.0 0.00 0.00 0.00
20260506041149 0 115 0.0 0.0 0.00 0.00 0.00
20260506040647 0 115 0.0 0.0 0.00 0.00 0.00
20260506040144 0 115 0.0 0.0 0.00 0.00 0.00
20260506035641 0 115 0.0 0.0 0.00 0.00 0.00
20260506035137 0 115 0.0 0.0 0.00 0.00 0.00
20260506034634 0 115 0.0 0.0 0.00 0.00 0.00
20260506034131 0 115 0.0 0.0 0.00 0.00 0.00
20260506033628 0 115 0.0 0.0 0.00 0.00 0.00
20260506033125 0 115 0.0 0.0 0.00 0.00 0.00
20260506032623 0 115 0.0 0.0 0.00 0.00 0.00
20260506032119 0 115 0.0 0.0 0.00 0.00 0.00
20260506031616 0 115 0.0 0.0 0.00 0.00 0.00
20260506031113 0 115 0.0 0.0 0.00 0.00 0.00
20260506030612 0 115 0.0 0.0 0.00 0.00 0.00
20260506030109 0 115 0.0 0.0 0.00 0.00 0.00
20260506025606 0 115 0.0 0.0 0.00 0.00 0.00
20260506025101 0 115 0.0 0.0 0.00 0.00 0.00
20260506024559 0 115 0.0 0.0 0.00 0.00 0.00
20260506024055 0 115 0.0 0.0 0.00 0.00 0.00
20260506023551 0 115 0.0 0.0 0.00 0.00 0.00
20260506023049 0 115 0.0 0.0 0.00 0.00 0.00
20260506022546 0 115 0.0 0.0 0.00 0.00 0.00
20260506022044 0 115 0.0 0.0 0.00 0.00 0.00
20260506021541 0 115 0.0 0.0 0.00 0.00 0.00
20260506021038 0 115 0.0 1.0 0.00 0.00 0.00
20260506020536 0 115 0.0 0.0 0.00 0.00 0.00
20260506020033 0 115 0.0 0.0 0.00 0.00 0.00
20260506015530 0 115 0.0 0.0 0.00 0.00 0.00
20260506015027 0 115 0.0 0.0 0.00 0.00 0.00